This is the latest recevied weather packets stored in our database for station/object OE-11051. If no packets are shown the sender has not sent any weather packets the latest 10 day(s).
| Time | Temp. | Humidity | Pressure | Rain* | Wind** | Luminosity | Snow |
|---|---|---|---|---|---|---|---|
| 1787846707 | 29.44° C | 46% | 1011.7 hPa | 0 mm | - | 148 W/m² | - |
| 1787846107 | 29.44° C | 45% | 1011.6 hPa | 0 mm | - | 206 W/m² | - |
| 1787845279 | 29.44° C | 45% | 1011.7 hPa | 0 mm | - | 200 W/m² | - |
| 1787844907 | 29.44° C | 45% | 1011.7 hPa | 0 mm | - | 213 W/m² | - |
| 1787844307 | 29.44° C | 44% | 1011.7 hPa | 0 mm | - | 200 W/m² | - |
| 1787843480 | 29.44° C | 44% | 1011.7 hPa | 0 mm | - | 264 W/m² | - |
| 1787843107 | 30° C | 44% | 1011.9 hPa | 0 mm | - | 406 W/m² | - |
| 1787842507 | 30° C | 43% | 1012 hPa | 0 mm | - | 477 W/m² | - |
| 1787841680 | 30° C | 44% | 1012 hPa | 0 mm | - | 503 W/m² | - |
| 1787841307 | 30° C | 44% | 1012 hPa | 0 mm | - | 503 W/m² | - |
| 1787839880 | 29.44° C | 45% | 1012.2 hPa | 0 mm | - | 535 W/m² | - |
| 1787839507 | 29.44° C | 46% | 1012.1 hPa | 0 mm | - | 529 W/m² | - |
| 1787838907 | 29.44° C | 46% | 1012.2 hPa | 0 mm | - | 509 W/m² | - |
| 1787838080 | 29.44° C | 47% | 1012.3 hPa | 0 mm | - | 561 W/m² | - |
| 1787837707 | 28.89° C | 47% | 1012.4 hPa | 0 mm | - | 619 W/m² | - |
| 1787837107 | 28.89° C | 47% | 1012.4 hPa | 0 mm | - | 638 W/m² | - |
| 1787836280 | 28.89° C | 48% | 1012.6 hPa | 0 mm | - | 651 W/m² | - |
| 1787835906 | 28.89° C | 47% | 1012.6 hPa | 0 mm | - | 664 W/m² | - |
| 1787835307 | 28.89° C | 46% | 1012.6 hPa | 0 mm | - | 677 W/m² | - |
| 1787834480 | 28.33° C | 47% | 1012.8 hPa | 0 mm | - | 651 W/m² | - |
| 1787834106 | 28.33° C | 47% | 1012.9 hPa | 0 mm | - | 658 W/m² | - |
| 1787833507 | 27.78° C | 50% | 1013.1 hPa | 0 mm | - | 561 W/m² | - |
| 1787832680 | 27.78° C | 50% | 1013.4 hPa | 0 mm | - | 548 W/m² | - |
| 1787832307 | 27.78° C | 50% | 1013.3 hPa | 0 mm | - | 677 W/m² | - |
| 1787831706 | 27.78° C | 50% | 1013.4 hPa | 0 mm | - | 716 W/m² | - |
* Rain latest hour (hover to see other rain measurements)
** Current wind speed in m/s (hover to see current wind gust speed)